Tracking 27112 objects as of 27-Mar-2023
HD Live streaming from Space Station
objects crossing your sky now

CRRES DEB (CANISTER)

Track CRRES DEB (CANISTER) now!


NORAD ID: 21590
Int'l Code: 1990-065F
Perigee: 369.6 km
Apogee: 31,002.6 km
Inclination: 20.1 °
Period: 543.4 minutes
Semi major axis: 22057 km
RCS: 0.1267 m2 (medium)
Launch date: July 25, 1990
Source: United States (US)
Launch site: AIR FORCE EASTERN TEST RANGE (AFETR)

Note: This is SATELLITE DEBRIS
Your satellite tracking list
Your tracking list is empty




NASA's NSSDC Master Catalog

Two Line Element Set (TLE):
1 21590U 90065F   23085.45654975  .00000911  00000-0  13110-2 0  9999
2 21590  20.0639 162.7879 6944043  25.1104 356.6828  2.65021216 98169
Source of the keplerian elements: AFSPC